Waarnemingen

Advertentie
Mijn weer
Nice, Frankrijk (7690): temperatuur & dauwpunt: 09.10.2019 21:00:00 - 15.10.2019 21:00:00 (CEST)Nice, Frankrijk (7690): temperatuur 5cm: 09.10.2019 21:00:00 - 15.10.2019 21:00:00 (CEST)Nice, Frankrijk (7690): temperatuur -20cm & temperatuur -100cm: 09.10.2019 21:00:00 - 15.10.2019 21:00:00 (CEST)Nice, Frankrijk (7690): windsnelheid & windstoten: 09.10.2019 21:00:00 - 15.10.2019 21:00:00 (CEST)Nice, Frankrijk (7690): windrichting: 09.10.2019 21:00:00 - 15.10.2019 21:00:00 (CEST)Nice, Frankrijk (7690): luchtdruk: 09.10.2019 21:00:00 - 15.10.2019 21:00:00 (CEST)Nice, Frankrijk (7690): zicht: 09.10.2019 21:00:00 - 15.10.2019 21:00:00 (CEST)Nice, Frankrijk (7690): Zonneschijnduur: 09.10.2019 21:00:00 - 15.10.2019 21:00:00 (CEST)Nice, Frankrijk (7690): neerslag: 09.10.2019 21:00:00 - 15.10.2019 21:00:00 (CEST)
Datum & Tijd tt [°C] td [°C] tt 5cm [°C] tt -20cm [°C] tt -100cm [°C] ff [km/u] ff [kn] fx [km/u] fx [kn] dd ppp [hPa] vv [km] sd [min] rr [mm]
15.10.2019 21:00:00 18,2 9,8 - - - 24 13 42 23 W 1010,3 30 0 -
15.10.2019 20:00:00 18,4 10,7 17,4 21,8 22,6 30 16 57 31 WZW 1010,5 30 0 0,0
15.10.2019 19:00:00 19,5 11,0 18,4 21,8 22,7 33 18 55 30 WZW 1009,4 30 26 0,0
15.10.2019 18:00:00 20,9 12,1 21,3 21,8 22,7 41 22 55 30 WZW 1008,6 30 60 0,0
15.10.2019 17:00:00 21,9 12,4 23,7 21,7 22,7 31 17 45 24 ZW 1008,2 20 60 0,0
15.10.2019 16:00:00 21,4 18,2 23,5 21,7 22,7 18 10 24 13 ZZW 1008,8 20 54 0,0
15.10.2019 15:00:00 20,3 16,1 23,9 21,8 22,7 12 7 18 10 WZW 1009,2 20 29 0,0
15.10.2019 14:00:00 19,6 15,9 18,4 21,8 22,7 3 2 21 12 NW 1009,9 20 16 0,0
15.10.2019 13:00:00 17,9 16,6 17,8 21,7 22,7 11 6 25 14 NNW 1010,3 15 0 0,6
15.10.2019 12:00:00 18,1 16,9 17,0 21,7 22,7 4 2 53 29 WNW 1010,9 29 0 12,1
15.10.2019 11:00:00 21,4 19,3 21,0 21,7 22,7 30 16 39 21 ZZO 1010,1 10 3 0,0
15.10.2019 10:00:00 21,0 19,1 20,7 21,7 22,7 29 16 37 20 ZO 1010,5 12 0 0,0
15.10.2019 09:00:00 20,9 19,0 19,6 21,7 22,7 24 13 44 24 O 1010,8 11 0 0,2
15.10.2019 08:00:00 20,4 18,7 19,5 21,7 22,7 28 15 50 27 OZO 1011,0 4,0 0 4,7
15.10.2019 07:00:00 21,4 18,4 17,8 21,7 22,6 35 19 53 29 OZO 1010,9 15 0 0,4
15.10.2019 06:00:00 20,0 17,6 16,7 21,7 22,7 12 7 45 24 O 1011,4 0,7 0 9,7
15.10.2019 05:00:00 18,0 15,6 16,5 21,7 22,7 12 6 18 10 NNW 1012,9 1,8 0 1,4
15.10.2019 04:00:00 18,7 14,0 18,1 21,7 22,7 8 4 22 12 NNW 1013,4 20 0 0,0
15.10.2019 03:00:00 18,8 14,3 17,7 21,7 22,7 13 7 22 12 NNW 1014,9 20 0 0,0
15.10.2019 02:00:00 19,6 15,3 18,3 21,6 22,7 12 6 23 12 NO 1015,2 20 0 0,0
15.10.2019 01:00:00 19,3 15,0 18,4 21,6 22,7 11 6 20 11 NW 1016,4 20 0 0,0
15.10.2019 00:00:00 19,5 15,4 18,6 21,6 22,7 8 5 13 7 NNW 1016,4 20 0 0,0
14.10.2019 23:00:00 20,0 15,6 19,5 21,6 22,7 8 4 20 11 NNW 1017,0 20 0 0,0
14.10.2019 22:00:00 21,7 16,4 21,1 21,6 22,7 11 6 33 18 NO 1017,1 15 0 0,0
14.10.2019 21:00:00 21,9 17,7 21,3 21,6 22,7 20 11 40 22 ONO 1017,4 15 0 0,0
14.10.2019 20:00:00 21,6 17,8 21,0 21,6 22,7 23 13 32 18 ONO 1017,0 15 0 0,0
14.10.2019 19:00:00 21,5 18,1 21,0 21,6 22,7 18 10 29 16 ONO 1016,8 15 4 0,0
14.10.2019 18:00:00 21,9 18,1 22,7 21,6 22,7 21 11 35 19 O 1017,2 15 48 0,0
14.10.2019 17:00:00 22,5 18,1 24,7 21,6 22,7 29 16 38 21 O 1017,3 15 60 0,0
14.10.2019 16:00:00 22,9 18,0 24,2 21,6 22,7 31 17 39 21 O 1017,8 20 56 0,0
14.10.2019 15:00:00 23,4 18,1 25,8 21,6 22,7 30 16 36 20 O 1018,2 20 56 0,0
14.10.2019 14:00:00 23,1 18,0 27,2 21,6 22,7 25 14 34 18 O 1019,0 30 60 0,0
14.10.2019 13:00:00 23,3 17,5 27,5 21,6 22,7 27 15 34 19 O 1019,8 30 60 0,0
14.10.2019 12:00:00 23,3 17,7 27,1 21,6 22,7 15 8 26 14 O 1020,4 30 60 0,0
14.10.2019 11:00:00 22,9 16,2 26,1 21,6 22,7 16 8 21 12 ONO 1020,7 30 60 0,0
14.10.2019 10:00:00 21,1 13,5 21,7 21,6 22,7 13 7 20 11 NNW 1020,8 30 60 0,0
14.10.2019 09:00:00 19,3 13,2 18,4 21,6 22,7 16 9 22 12 NNW 1020,6 30 54 0,0
14.10.2019 08:00:00 18,6 13,5 18,3 21,6 22,7 13 7 19 10 NNW 1020,2 40 0 0,0
14.10.2019 07:00:00 18,7 13,8 18,1 21,6 22,7 15 8 22 12 NNW 1020,3 20 0 0,0
14.10.2019 06:00:00 18,5 14,2 17,3 21,6 22,7 11 6 16 9 NNW 1020,2 20 0 0,0
14.10.2019 05:00:00 18,3 14,6 17,3 21,6 22,7 10 5 15 8 NNW 1020,1 20 0 0,0
14.10.2019 04:00:00 18,7 15,0 18,0 21,6 22,7 6 3 15 8 N 1020,5 20 0 0,0
14.10.2019 03:00:00 19,1 15,4 18,0 21,6 22,7 11 6 15 8 NNW 1021,1 20 0 0,0
14.10.2019 02:00:00 18,7 15,6 16,8 21,6 22,7 11 6 13 7 NNW 1021,2 20 0 0,0
14.10.2019 01:00:00 18,7 15,0 16,7 21,5 22,7 7 4 14 7 N 1021,5 20 0 0,0
14.10.2019 00:00:00 20,4 15,0 19,2 21,6 22,8 10 5 28 15 NNO 1022,0 20 0 0,0
13.10.2019 23:00:00 21,2 16,4 20,4 21,6 22,8 21 11 30 16 ONO 1021,9 20 0 0,0
13.10.2019 22:00:00 21,2 16,2 20,7 21,6 22,8 21 11 36 19 ONO 1021,6 20 0 0,0
13.10.2019 21:00:00 21,3 16,7 20,9 21,6 22,8 29 16 42 23 O 1021,5 20 0 0,0
13.10.2019 20:00:00 20,9 16,7 20,5 21,6 22,8 32 18 40 22 O 1021,7 20 0 0,0
13.10.2019 19:00:00 20,7 17,7 20,5 21,6 22,8 32 18 40 22 O 1021,3 20 20 0,0
13.10.2019 18:00:00 21,2 17,8 22,3 21,6 22,8 31 17 38 21 O 1021,2 20 42 0,0
13.10.2019 17:00:00 21,7 17,7 23,2 21,6 22,8 30 16 37 20 O 1021,2 20 37 0,0
13.10.2019 16:00:00 21,9 17,3 24,5 21,6 22,8 31 17 38 21 O 1021,5 20 55 0,0
13.10.2019 15:00:00 22,4 17,1 26,3 21,6 22,8 29 16 36 19 O 1021,7 30 60 0,0
13.10.2019 14:00:00 22,5 17,0 25,9 21,6 22,7 25 14 30 16 O 1022,2 30 40 0,0
13.10.2019 13:00:00 22,5 16,1 25,7 21,6 22,8 21 11 27 14 O 1022,8 30 49 0,0
13.10.2019 12:00:00 22,3 14,9 26,3 21,6 22,8 14 8 18 10 O 1023,0 30 44 0,0
13.10.2019 11:00:00 21,1 12,2 21,2 21,6 22,8 9 5 19 11 NNW 1023,0 30 49 0,0
13.10.2019 10:00:00 18,7 11,7 17,6 21,6 22,8 13 7 22 12 NNW 1022,9 30 47 0,0
13.10.2019 09:00:00 16,5 11,2 15,6 21,6 22,8 18 10 25 13 NNW 1022,7 30 2 0,0
13.10.2019 08:00:00 15,9 11,1 15,3 21,6 22,8 14 8 24 13 NNW 1022,2 30 0 0,0
13.10.2019 07:00:00 16,0 11,2 15,3 21,6 22,8 18 10 24 13 NNW 1022,2 30 0 0,0
13.10.2019 06:00:00 15,9 11,3 15,3 21,6 22,8 16 8 21 11 NNW 1022,4 20 0 0,0
13.10.2019 05:00:00 15,9 11,3 15,3 21,6 22,8 16 9 24 13 NNW 1022,3 20 0 0,0
13.10.2019 04:00:00 15,9 11,5 15,3 21,6 22,8 18 10 25 14 NNW 1022,8 20 0 0,0
13.10.2019 03:00:00 16,0 11,6 15,2 21,6 22,8 14 7 21 11 NNW 1023,0 20 0 0,0
13.10.2019 02:00:00 15,9 11,7 15,3 21,6 22,8 15 8 19 10 NNW 1023,1 20 0 0,0
13.10.2019 01:00:00 16,2 12,0 15,5 21,6 22,8 14 8 22 12 NNW 1023,2 20 0 0,0
13.10.2019 00:00:00 16,3 12,3 15,6 21,6 22,8 14 7 19 10 NNW 1023,6 20 0 0,0
12.10.2019 23:00:00 16,7 12,6 16,0 21,6 22,9 10 5 16 9 NNW 1023,6 20 0 0,0
12.10.2019 22:00:00 17,0 13,1 16,1 21,6 22,9 7 4 12 7 NNW 1023,3 20 0 0,0
12.10.2019 21:00:00 18,6 13,7 16,9 21,6 22,9 6 4 15 8 NNO 1023,2 20 0 0,0
12.10.2019 20:00:00 19,2 13,8 17,7 21,6 22,9 6 4 10 5 O 1023,0 20 0 0,0
12.10.2019 19:00:00 19,5 14,1 18,3 21,6 22,9 6 3 8 4 O 1022,5 18 5 0,0
12.10.2019 18:00:00 19,9 14,3 20,4 21,6 22,9 4 2 11 6 OZO 1022,5 18 0 0,0
12.10.2019 17:00:00 20,3 14,4 22,0 21,7 22,9 8 4 12 7 OZO 1022,6 18 20 0,0
12.10.2019 16:00:00 20,8 14,0 23,9 21,6 22,9 7 4 12 6 ZZO 1022,9 18 27 0,0
12.10.2019 15:00:00 21,2 14,1 24,3 21,7 22,9 9 5 12 7 ZO 1022,9 18 24 0,0
12.10.2019 14:00:00 20,8 13,2 23,6 21,7 22,9 7 4 10 5 ZO 1023,3 18 22 0,0
12.10.2019 13:00:00 20,6 13,8 23,9 21,7 22,9 7 4 10 5 ZO 1024,0 18 6 0,0
12.10.2019 12:00:00 20,9 13,6 25,5 21,7 22,9 6 3 15 8 ZO 1024,2 20 51 0,0
12.10.2019 11:00:00 19,4 10,7 21,5 21,7 22,9 11 6 21 12 NW 1023,9 20 52 0,0
12.10.2019 10:00:00 17,0 9,7 15,9 21,7 22,9 16 9 29 16 NNW 1023,6 20 42 0,0
12.10.2019 09:00:00 14,9 9,3 14,3 21,7 22,9 18 10 26 14 NNW 1023,3 30 20 0,0
12.10.2019 08:00:00 14,3 9,1 13,7 21,7 22,9 18 10 25 13 NNW 1022,8 30 0 0,0
12.10.2019 07:00:00 14,5 9,3 13,7 21,7 22,9 16 9 27 15 NNW 1022,8 30 0 0,0
12.10.2019 06:00:00 14,6 9,4 13,8 21,7 22,9 17 9 23 12 NNW 1022,4 30 0 0,0
12.10.2019 05:00:00 14,8 9,8 14,0 21,7 22,9 18 10 22 12 NNW 1022,5 30 0 0,0
12.10.2019 04:00:00 14,9 10,1 14,4 21,7 22,9 11 6 27 15 N 1022,7 30 0 0,0
12.10.2019 03:00:00 15,4 10,2 14,4 21,7 22,9 16 9 22 12 NNW 1023,1 30 0 0,0
12.10.2019 02:00:00 15,3 10,9 14,6 21,7 22,9 17 9 25 14 NNW 1023,1 30 0 0,0
12.10.2019 01:00:00 15,7 11,5 15,0 21,7 22,9 16 8 19 10 NNW 1023,3 30 0 0,0
12.10.2019 00:00:00 16,0 12,2 15,2 21,7 22,9 14 8 19 10 NNW 1023,7 30 0 0,0
11.10.2019 23:00:00 16,5 12,5 15,6 21,7 22,9 8 4 16 9 NNW 1023,8 30 0 0,0
11.10.2019 22:00:00 17,0 12,9 15,8 21,7 22,9 13 7 14 8 NW 1023,3 20 0 0,0
11.10.2019 21:00:00 18,3 13,2 15,6 21,7 22,9 0 0 7 4 N 1022,8 20 0 0,0
11.10.2019 20:00:00 19,3 13,9 17,0 21,7 23,0 4 2 10 5 ZO 1022,6 20 0 0,0
11.10.2019 19:00:00 19,6 13,5 18,7 21,7 23,0 9 5 13 7 OZO 1022,2 20 33 0,0
11.10.2019 18:00:00 20,5 13,0 22,5 21,7 22,9 10 5 14 8 OZO 1022,1 40 60 0,0
11.10.2019 17:00:00 21,1 12,5 25,0 21,7 22,9 11 6 16 9 O 1022,2 40 60 0,0
11.10.2019 16:00:00 21,2 11,8 26,2 21,7 23,0 10 5 14 8 O 1022,6 40 60 0,0
11.10.2019 15:00:00 21,0 13,9 26,8 21,7 23,0 11 6 16 9 OZO 1023,1 40 60 0,0
11.10.2019 14:00:00 21,7 13,6 26,7 21,7 23,0 12 6 16 9 OZO 1023,5 40 60 0,0
11.10.2019 13:00:00 21,5 14,9 24,8 21,7 23,0 12 7 18 10 OZO 1023,8 40 52 0,0
11.10.2019 12:00:00 21,4 15,2 25,6 21,7 23,0 9 5 13 7 OZO 1024,0 40 57 0,0
11.10.2019 11:00:00 21,3 13,7 23,2 21,7 23,0 3 2 21 11 OZO 1023,7 40 60 0,0
11.10.2019 10:00:00 18,3 9,6 16,9 21,8 23,0 13 7 19 11 NNW 1023,2 52 60 0,0
11.10.2019 09:00:00 15,9 9,6 14,9 21,8 23,0 16 9 29 16 NNW 1022,4 40 60 0,0
11.10.2019 08:00:00 14,7 9,5 14,0 21,8 23,0 17 9 24 13 NNW 1021,9 40 0 0,0
11.10.2019 07:00:00 15,0 10,0 14,1 21,8 23,0 13 7 22 12 NNW 1021,6 30 0 0,0
11.10.2019 06:00:00 15,2 10,4 14,5 21,8 23,0 16 9 24 13 NNW 1021,2 30 0 0,0
11.10.2019 05:00:00 15,6 10,8 14,8 21,8 23,0 16 8 21 11 NNW 1021,2 30 0 0,0
11.10.2019 04:00:00 15,9 11,1 15,0 21,8 23,0 11 6 15 8 NNW 1020,9 30 0 0,0
11.10.2019 03:00:00 16,1 11,7 15,1 21,8 23,0 13 7 16 8 NNW 1020,9 30 0 0,0
11.10.2019 02:00:00 16,2 12,0 15,3 21,7 23,0 12 7 22 12 NNW 1020,4 30 0 0,0
11.10.2019 01:00:00 16,1 12,5 15,3 21,8 23,0 14 8 21 12 NNW 1020,0 30 0 0,0
11.10.2019 00:00:00 16,4 12,9 15,5 21,8 23,0 13 7 18 10 NNW 1019,8 30 0 0,0
10.10.2019 23:00:00 16,8 13,5 16,1 21,8 23,0 8 4 19 11 N 1019,4 30 0 0,0
10.10.2019 22:00:00 17,7 14,0 16,5 21,8 23,1 12 7 20 11 NNW 1018,8 30 0 0,0
10.10.2019 21:00:00 18,4 14,5 14,6 21,8 23,0 5 3 8 5 NW 1018,3 30 0 0,0
10.10.2019 20:00:00 18,9 14,4 15,1 21,8 23,0 0 0 7 4 N 1017,6 40 0 0,0
10.10.2019 19:00:00 19,9 15,1 18,5 21,8 23,0 3 2 8 4 OZO 1016,8 30 29 0,0
10.10.2019 18:00:00 20,6 15,2 22,1 21,8 23,0 5 3 14 7 ZO 1016,1 30 52 0,0
10.10.2019 17:00:00 21,3 15,2 24,9 21,8 23,1 9 5 13 7 OZO 1015,7 30 54 0,0
10.10.2019 16:00:00 21,7 14,8 27,1 21,8 23,1 9 5 14 8 ZZO 1015,7 30 58 0,0
10.10.2019 15:00:00 21,9 14,5 27,9 21,8 23,0 10 6 16 9 Z 1015,6 30 60 0,0
10.10.2019 14:00:00 21,7 15,3 27,4 21,8 23,1 9 5 13 7 Z 1015,7 30 56 0,0
10.10.2019 13:00:00 21,0 14,9 26,5 21,8 23,1 10 5 14 7 ZZW 1015,8 40 47 0,0
10.10.2019 12:00:00 20,8 13,7 24,3 21,9 23,1 9 5 16 9 W 1015,9 40 56 0,0
10.10.2019 11:00:00 19,4 6,5 21,0 21,9 23,1 13 7 24 13 NW 1015,7 40 55 0,0
10.10.2019 10:00:00 16,9 5,5 15,9 21,9 23,1 19 10 29 15 NNW 1015,3 40 35 0,0
10.10.2019 09:00:00 15,2 4,8 14,3 21,9 23,1 20 11 29 15 NNW 1014,6 40 36 0,0
10.10.2019 08:00:00 14,4 4,9 13,6 21,9 23,1 21 11 29 16 NNW 1013,7 40 0 0,0
10.10.2019 07:00:00 14,7 5,2 14,0 21,9 23,1 16 8 22 12 NNW 1013,4 40 0 0,0
10.10.2019 06:00:00 15,2 5,9 14,7 21,9 23,1 14 8 23 12 NNW 1013,4 40 0 0,0
10.10.2019 05:00:00 15,6 7,1 14,5 21,9 23,1 14 7 26 14 NNW 1013,4 40 0 0,0
10.10.2019 04:00:00 15,5 7,8 14,4 21,9 23,1 19 10 25 13 NW 1013,5 40 0 0,0
10.10.2019 03:00:00 15,3 9,0 13,7 21,9 23,1 15 8 17 9 NW 1013,8 40 0 0,0
10.10.2019 02:00:00 14,7 10,5 13,7 21,9 23,1 10 5 16 8 WNW 1013,9 40 0 0,0
10.10.2019 01:00:00 15,7 12,1 14,3 21,9 23,1 6 3 13 7 NW 1013,5 40 0 0,0
10.10.2019 00:00:00 16,2 12,9 14,5 21,9 23,1 9 5 14 8 NNW 1013,0 40 0 0,0
09.10.2019 23:00:00 16,8 13,5 15,3 21,9 23,1 10 5 16 9 NW 1012,5 40 0 0,0
09.10.2019 22:00:00 18,0 13,3 16,5 21,9 23,1 8 5 22 12 NNW 1012,3 40 0 0,0
09.10.2019 21:00:00 20,6 13,1 19,8 21,9 23,1 22 12 42 23 W 1012,3 40 0 0,0

tt = temperatuur
td = dauwpunt
tt 5cm = temperatuur 5cm
tt -20cm = temperatuur -20cm
tt -100cm = temperatuur -100cm
ff = windsnelheid
fx = windstoten
dd = windrichting
ppp = luchtdruk
vv = zicht
sd = Zonneschijnduur
rr = neerslag

Weerstations in de omgeving